[[{"header":{"parameterUnit":"m.s-1","parameterCategory":2,"la1":30.2992,"la2":30.254,"lo1":-89.0895,"lo2":-89.0443,"dy":0.0025,"dx":0.0025,"nx":19,"ny":19,"refTime":"2026-03-29T09:00:00:Z","depth":"0","parameterNumber":2,"parameterNumberName":"U-component_of_CURRENTS"},"data":[0,0,0,-0.0822,-0.0822,-0.0827,-0.0826,-0.0764,-0.0763,0,0,0,0,0,0,0,0,0,0,0,-0.0818,-0.0818,-0.0822,-0.0822,-0.0827,-0.0826,-0.0764,-0.0763,0,0,0,0,0,0,0,0,0,0,0,-0.0818,-0.0818,-0.0818,-0.0823,-0.0827,-0.0826,-0.0764,-0.0775,0,0,0,0,0,0,0,0,0,0,-0.0778,-0.0787,-0.0818,-0.0818,-0.0823,-0.0827,-0.0826,-0.0776,-0.0774,-0.0746,0,-0.0755,0,-0.0763,-0.0758,-0.0758,0,0,0,-0.0811,-0.0788,-0.0794,-0.0818,-0.0823,-0.0827,-0.0821,-0.0775,-0.0773,-0.0743,-0.0755,-0.0753,-0.0761,-0.0758,-0.0757,-0.0724,-0.0724,0,0,-0.081,-0.081,-0.0796,-0.0793,-0.0834,-0.0821,-0.0822,-0.0775,-0.0772,-0.0755,-0.0752,-0.076,-0.0757,-0.0757,-0.0724,-0.0724,0,0,0,-0.0818,-0.081,-0.0817,-0.0795,-0.0804,-0.0822,-0.0822,-0.0774,-0.0779,-0.0751,-0.076,-0.0757,-0.0756,-0.0724,-0.0724,-0.0792,0,0,0,-0.0817,-0.0815,-0.0817,-0.0816,-0.0806,-0.0798,-0.0822,-0.0782,-0.0777,-0.076,-0.0757,-0.0755,-0.0723,-0.0724,-0.079,-0.0856,0,0,0,-0.0816,-0.0814,-0.082,-0.0816,-0.0824,-0.08,-0.0801,-0.0781,-0.0782,-0.0758,-0.0755,-0.0723,-0.0724,-0.0788,-0.0851,-0.099,0,0,0,-0.0808,-0.0826,-0.082,-0.0839,-0.0824,-0.0831,-0.0802,-0.0791,-0.0773,-0.0757,-0.0723,-0.0724,-0.0787,-0.0848,-0.0985,-0.1214,-0.1254,0,0,-0.0829,-0.0829,-0.084,-0.0835,-0.0859,-0.0829,-0.0841,-0.0803,-0.0768,-0.0731,-0.0731,-0.0791,-0.0851,-0.0989,-0.1235,-0.1275,0,0,0,-0.0845,-0.086,-0.0863,-0.0877,-0.0871,-0.088,-0.0838,-0.0822,-0.08,-0.0763,-0.0779,-0.0815,-0.0901,-0.1027,-0.1059,-0.1159,-0.0725,-0.0725,-0.0725,-0.0876,-0.0882,-0.0911,-0.092,-0.0921,-0.0905,-0.0911,-0.0882,-0.0824,-0.0827,-0.0861,-0.1,-0.1131,-0.1159,-0.1257,-0.0829,-0.0829,-0.0829,-0.083,-0.0928,-0.0949,-0.0961,-0.099,-0.0991,-0.0995,-0.0984,-0.0959,-0.1006,-0.0912,-0.0992,-0.1079,-0.1199,-0.129,-0.0834,-0.0833,-0.0833,-0.0832,-0.0832,-0.0951,-0.0964,-0.0984,-0.1031,-0.1067,-0.1063,-0.1162,-0.1126,-0.1105,-0.1159,-0.1355,-0.1356,-0.1454,-0.122,-0.1221,-0.1222,-0.1223,-0.1224,-0.1224,-0.0962,-0.0987,-0.1034,-0.1076,-0.1121,-0.1193,-0.1276,-0.137,-0.1502,-0.1487,-0.1489,-0.1534,-0.1121,-0.1127,-0.1238,-0.1235,-0.1234,-0.1232,-0.1231,-0.0987,-0.0995,-0.1068,-0.1119,-0.1251,-0.1386,-0.1497,-0.1806,-0.1902,-0.2027,-0.2006,-0.1677,-0.1703,-0.1678,-0.1697,-0.1951,-0.1951,-0.1951,-0.1951,-0.0997,-0.1009,-0.1108,-0.1212,-0.1365,-0.1482,-0.1847,-0.2107,-0.2326,-0.2406,-0.2353,-0.2295,-0.2261,-0.2312,-0.2273,-0.2299,-0.2699,-0.27,-0.2701,-0.1019,-0.1043,-0.1112,-0.1221,-0.141,-0.162,-0.1951,-0.2352,-0.2668,-0.2729,-0.2452,-0.2421,-0.2317,-0.2256,-0.2307,-0.2244,-0.2275,0,0]},{"header":{"parameterUnit":"m.s-1","parameterCategory":2,"la1":30.2992,"la2":30.254,"lo1":-89.0895,"lo2":-89.0443,"dy":0.0025,"dx":0.0025,"nx":19,"ny":19,"refTime":"2026-03-29T09:00:00:Z","depth":"0","parameterNumber":3,"parameterNumberName":"V-component_of_CURRENTS"},"data":[0,0,0,-0.0098,-0.0097,-0.0029,-0.0029,0.006,0.0061,0,0,0,0,0,0,0,0,0,0,0,-0.0122,-0.0121,-0.0098,-0.0097,-0.0029,-0.0029,0.006,0.0061,0,0,0,0,0,0,0,0,0,0,0,-0.0122,-0.0121,-0.0121,-0.0096,-0.0029,-0.0029,0.006,0.001,0,0,0,0,0,0,0,0,0,0,-0.0054,-0.008,-0.0121,-0.0121,-0.0096,-0.003,-0.0029,0.0008,0.0014,0.0028,0,0.0034,0,0.0047,0.0066,0.0067,0,0,0,-0.0088,-0.0084,-0.0068,-0.0121,-0.0095,-0.003,-0.0057,0.0011,0.0017,0.0036,0.0036,0.0039,0.0048,0.0067,0.0067,0.0141,0.0141,0,0,-0.0092,-0.0106,-0.0072,-0.0064,-0.0084,-0.006,-0.0055,0.0015,0.002,0.0036,0.0041,0.005,0.0068,0.0068,0.014,0.0141,0,0,0,-0.0108,-0.0108,-0.0093,-0.0068,-0.0057,-0.0058,-0.0053,0.0017,0.0021,0.0042,0.0051,0.0068,0.0069,0.014,0.014,0.0136,0,0,0,-0.011,-0.0118,-0.0095,-0.0101,-0.0059,-0.002,-0.0053,0.0017,0.0025,0.005,0.0068,0.007,0.014,0.014,0.0136,0.012,0,0,0,-0.0124,-0.0119,-0.0114,-0.0102,-0.0077,-0.0021,-0.0012,0.0019,0.003,0.0067,0.007,0.014,0.014,0.0135,0.012,0.0126,0,0,0,-0.0136,-0.0141,-0.0114,-0.0109,-0.0078,-0.0038,-0.0012,0.0025,0.0054,0.0068,0.014,0.014,0.0135,0.012,0.0126,0.0122,0.0122,0,0,-0.0153,-0.0143,-0.0139,-0.0114,-0.0085,-0.0046,-0.0002,0.0046,0.0068,0.0118,0.012,0.0136,0.012,0.0126,0.015,0.0149,0,0,0,-0.015,-0.015,-0.0136,-0.011,-0.007,-0.0022,0.0029,0.0058,0.0109,0.0087,0.0147,0.0137,0.0141,0.0139,0.0139,0.0378,0.0143,0.0143,0.0143,-0.0193,-0.0164,-0.015,-0.0108,-0.0072,0.0002,0.0043,0.0094,0.0116,0.0138,0.0143,0.0154,0.0153,0.0152,0.04,0.016,0.016,0.016,0.016,-0.0228,-0.0223,-0.0164,-0.0147,-0.0075,-0.0031,0.0063,0.0093,0.0148,0.0157,0.0162,0.0145,0.0151,0.0416,0.016,0.016,0.016,0.016,0.016,-0.027,-0.0263,-0.0243,-0.0204,-0.0142,-0.0061,-0.0023,0.0057,0.0128,0.0144,0.0145,0.0145,0.0369,0.0147,0.0147,0.0147,0.0147,0.0147,0.0147,-0.033,-0.0305,-0.0321,-0.0266,-0.0247,-0.0196,-0.0081,-0.0034,0.0071,0.0133,0.0133,0.0411,0.015,0.0141,0.0146,0.0147,0.0147,0.0147,0.0147,-0.0395,-0.0392,-0.0429,-0.0429,-0.0396,-0.0414,-0.0274,-0.0147,-0.0045,0.0004,0.0429,0.0137,0.0136,0.0137,0.0128,0.0129,0.0129,0.0129,0.0129,-0.0453,-0.0448,-0.054,-0.0581,-0.0584,-0.0529,-0.0534,-0.0303,0.0165,0.0445,0.0561,0.0608,0.0598,0.0628,0.0618,0.0621,0.0748,0.0749,0.075,-0.0504,-0.053,-0.0627,-0.067,-0.0685,-0.0684,-0.0708,-0.0421,0.0384,0.0803,0.0903,0.0877,0.0975,0.0939,0.1004,0.097,0.0979,0,0]}],[{"header":{"parameterUnit":"m.s-1","parameterCategory":2,"la1":30.2992,"la2":30.254,"lo1":-89.0895,"lo2":-89.0443,"dy":0.0025,"dx":0.0025,"nx":19,"ny":19,"refTime":"2026-03-29T09:00:00:Z","depth":"2","parameterNumber":2,"parameterNumberName":"U-component_of_CURRENTS"},"data":[0,0,0,-0.0755,-0.0756,-0.076,-0.076,-0.0694,-0.0694,0,0,0,0,0,0,0,0,0,0,0,-0.0751,-0.0752,-0.0755,-0.0756,-0.076,-0.076,-0.0695,-0.0694,0,0,0,0,0,0,0,0,0,0,0,-0.0751,-0.0752,-0.0752,-0.0756,-0.076,-0.076,-0.0695,-0.0706,0,0,0,0,0,0,0,0,0,0,-0.071,-0.0719,-0.0752,-0.0752,-0.0756,-0.076,-0.076,-0.0707,-0.0705,-0.0676,0,-0.0686,0,-0.0693,-0.0689,-0.0689,0,0,0,-0.0744,-0.0721,-0.0726,-0.0752,-0.0756,-0.0761,-0.0755,-0.0707,-0.0704,-0.0673,-0.0685,-0.0683,-0.0692,-0.0688,-0.0688,-0.0651,-0.0651,0,0,-0.0744,-0.0744,-0.0728,-0.0725,-0.0768,-0.0755,-0.0755,-0.0706,-0.0704,-0.0685,-0.0682,-0.0691,-0.0688,-0.0687,-0.0651,-0.0651,0,0,0,-0.0751,-0.0743,-0.0751,-0.0727,-0.0737,-0.0755,-0.0756,-0.0706,-0.071,-0.0682,-0.069,-0.0687,-0.0687,-0.0651,-0.0651,-0.0722,0,0,0,-0.075,-0.0749,-0.0751,-0.075,-0.0739,-0.0731,-0.0756,-0.0713,-0.0709,-0.069,-0.0687,-0.0686,-0.0651,-0.0651,-0.072,-0.0786,0,0,0,-0.0749,-0.0748,-0.0754,-0.075,-0.0759,-0.0733,-0.0734,-0.0713,-0.0714,-0.0689,-0.0686,-0.0651,-0.0651,-0.0718,-0.0781,-0.0917,0,0,0,-0.0742,-0.0761,-0.0754,-0.0773,-0.0759,-0.0764,-0.0734,-0.0724,-0.0705,-0.0687,-0.0651,-0.0651,-0.0717,-0.0778,-0.0912,-0.1118,-0.1156,0,0,-0.0763,-0.0763,-0.0775,-0.0769,-0.0793,-0.0762,-0.0774,-0.0734,-0.0699,-0.0659,-0.0659,-0.0721,-0.078,-0.0916,-0.1138,-0.1177,0,0,0,-0.078,-0.0794,-0.0797,-0.0811,-0.0804,-0.0812,-0.077,-0.0753,-0.073,-0.0693,-0.0708,-0.0744,-0.0828,-0.094,-0.097,-0.0653,-0.0653,-0.0653,-0.0653,-0.0813,-0.0817,-0.0846,-0.0854,-0.0854,-0.0837,-0.0842,-0.0812,-0.0754,-0.0757,-0.079,-0.0929,-0.1045,-0.1071,-0.0758,-0.0759,-0.0759,-0.0759,-0.0759,-0.0864,-0.0885,-0.0896,-0.0924,-0.0924,-0.0928,-0.0914,-0.089,-0.0935,-0.0842,-0.092,-0.0994,-0.1109,-0.0765,-0.0764,-0.0763,-0.0762,-0.0762,-0.0762,-0.0888,-0.0901,-0.0921,-0.0967,-0.1002,-0.0996,-0.1093,-0.1057,-0.1035,-0.1088,-0.1267,-0.1267,-0.1031,-0.1149,-0.115,-0.1151,-0.1152,-0.1152,-0.1153,-0.09,-0.0925,-0.0972,-0.1013,-0.1057,-0.1127,-0.1208,-0.1299,-0.1419,-0.1398,-0.14,-0.1062,-0.1049,-0.1055,-0.1166,-0.1164,-0.1162,-0.1161,-0.116,-0.0926,-0.0935,-0.1006,-0.1056,-0.1186,-0.1292,-0.1418,-0.1712,-0.1809,-0.1924,-0.1591,-0.1576,-0.1599,-0.1574,-0.1593,-0.1838,-0.1838,-0.1838,-0.1838,-0.0937,-0.0948,-0.1046,-0.1148,-0.1297,-0.1378,-0.1667,-0.1817,-0.1922,-0.1866,-0.1863,-0.1764,-0.1741,-0.176,-0.1732,-0.1748,-0.2033,-0.2032,-0.2032,-0.0958,-0.0982,-0.1049,-0.1157,-0.1342,-0.1487,-0.1666,-0.175,-0.186,-0.2018,-0.1677,-0.1893,-0.1738,-0.1704,-0.1718,-0.1679,-0.1698,0,0]},{"header":{"parameterUnit":"m.s-1","parameterCategory":2,"la1":30.2992,"la2":30.254,"lo1":-89.0895,"lo2":-89.0443,"dy":0.0025,"dx":0.0025,"nx":19,"ny":19,"refTime":"2026-03-29T09:00:00:Z","depth":"2","parameterNumber":3,"parameterNumberName":"V-component_of_CURRENTS"},"data":[0,0,0,-0.0111,-0.011,-0.0042,-0.0042,0.0049,0.005,0,0,0,0,0,0,0,0,0,0,0,-0.0135,-0.0135,-0.0111,-0.011,-0.0042,-0.0042,0.0049,0.005,0,0,0,0,0,0,0,0,0,0,0,-0.0135,-0.0135,-0.0134,-0.011,-0.0042,-0.0042,0.0049,-0.0001,0,0,0,0,0,0,0,0,0,0,-0.0067,-0.0093,-0.0135,-0.0134,-0.0109,-0.0042,-0.0042,-0.0004,0.0002,0.0017,0,0.0023,0,0.0036,0.0055,0.0056,0,0,0,-0.0102,-0.0097,-0.008,-0.0134,-0.0109,-0.0042,-0.007,-0.0001,0.0006,0.0024,0.0024,0.0028,0.0037,0.0056,0.0056,0.0131,0.0132,0,0,-0.0105,-0.0119,-0.0085,-0.0077,-0.0097,-0.0073,-0.0068,0.0003,0.0008,0.0025,0.003,0.0039,0.0056,0.0057,0.0131,0.0132,0,0,0,-0.0122,-0.0122,-0.0106,-0.008,-0.007,-0.0071,-0.0066,0.0005,0.001,0.0031,0.004,0.0057,0.0058,0.0131,0.0131,0.0126,0,0,0,-0.0124,-0.0132,-0.0108,-0.0115,-0.0072,-0.0032,-0.0066,0.0005,0.0013,0.0039,0.0057,0.0059,0.0131,0.0131,0.0126,0.0109,0,0,0,-0.0137,-0.0133,-0.0127,-0.0116,-0.009,-0.0033,-0.0024,0.0007,0.0018,0.0056,0.0059,0.0131,0.0131,0.0125,0.0109,0.0115,0,0,0,-0.015,-0.0153,-0.0128,-0.0121,-0.0091,-0.0049,-0.0024,0.0013,0.0043,0.0057,0.0131,0.0131,0.0125,0.0109,0.0115,0.0104,0.0103,0,0,-0.0165,-0.0156,-0.0151,-0.0126,-0.0097,-0.0058,-0.0013,0.0035,0.0058,0.0108,0.011,0.0126,0.0109,0.0115,0.0134,0.0132,0,0,0,-0.0162,-0.0162,-0.0147,-0.0121,-0.008,-0.0032,0.0018,0.0048,0.0099,0.0077,0.0138,0.0128,0.0131,0.0125,0.0124,0.0134,0.0134,0.0134,0.0134,-0.0204,-0.0175,-0.016,-0.0118,-0.0081,-0.0008,0.0033,0.0084,0.0107,0.0129,0.0133,0.0144,0.0139,0.0137,0.0152,0.0152,0.0152,0.0152,0.0152,-0.0238,-0.0233,-0.0174,-0.0156,-0.0086,-0.0041,0.0053,0.0083,0.0138,0.0147,0.0152,0.0131,0.0136,0.0151,0.0151,0.0151,0.0151,0.0152,0.0152,-0.028,-0.0273,-0.0253,-0.0214,-0.0153,-0.0072,-0.0033,0.0046,0.0117,0.0133,0.0129,0.0129,0.013,0.0136,0.0136,0.0136,0.0136,0.0135,0.0135,-0.034,-0.0315,-0.0331,-0.0276,-0.0258,-0.0207,-0.0092,-0.0045,0.0056,0.0115,0.0116,0.0139,0.014,0.013,0.0135,0.0135,0.0135,0.0135,0.0135,-0.0405,-0.0403,-0.0439,-0.0439,-0.0406,-0.0425,-0.0285,-0.0163,-0.0063,-0.0017,0.0115,0.0116,0.0114,0.0115,0.0105,0.0104,0.0104,0.0104,0.0104,-0.0463,-0.0458,-0.0551,-0.0591,-0.0594,-0.0539,-0.0557,-0.0367,-0.0115,0.0026,0.0029,0.0027,0.003,0.0024,0.0027,0.0015,-0.001,-0.001,-0.0011,-0.0514,-0.054,-0.0638,-0.068,-0.0694,-0.0693,-0.0742,-0.055,-0.0155,-0.0018,-0.0017,0.0101,0.0108,0.0109,0.0108,0.0109,0.0094,0,0]}],[{"header":{"parameterUnit":"m.s-1","parameterCategory":2,"la1":30.2992,"la2":30.254,"lo1":-89.0895,"lo2":-89.0443,"dy":0.0025,"dx":0.0025,"nx":19,"ny":19,"refTime":"2026-03-29T09:00:00:Z","depth":"4","parameterNumber":2,"parameterNumberName":"U-component_of_CURRENTS"},"data":[0,0,0,-0.038,-0.0381,-0.0395,-0.0395,-0.0332,-0.0332,0,0,0,0,0,0,0,0,0,0,0,-0.0376,-0.0376,-0.038,-0.0381,-0.0395,-0.0395,-0.0332,-0.0332,0,0,0,0,0,0,0,0,0,0,0,-0.0376,-0.0376,-0.0377,-0.0381,-0.0395,-0.0395,-0.0333,-0.034,0,0,0,0,0,0,0,0,0,0,-0.0335,-0.0347,-0.0376,-0.0377,-0.0381,-0.0395,-0.0395,-0.0341,-0.0339,-0.0306,0,-0.0319,0,-0.0326,-0.0327,-0.0326,0,0,0,-0.0371,-0.0348,-0.0353,-0.0377,-0.0381,-0.0395,-0.0386,-0.034,-0.0338,-0.0303,-0.0318,-0.0316,-0.0325,-0.0326,-0.0326,-0.0283,-0.0284,0,0,-0.037,-0.0372,-0.0355,-0.0353,-0.0397,-0.0385,-0.0386,-0.034,-0.034,-0.0318,-0.0315,-0.0324,-0.0326,-0.0325,-0.0283,-0.0283,0,0,0,-0.0375,-0.0372,-0.0379,-0.0354,-0.0365,-0.0386,-0.0387,-0.0342,-0.0346,-0.0315,-0.0323,-0.0325,-0.0324,-0.0283,-0.0283,-0.0372,0,0,0,-0.0374,-0.0375,-0.0379,-0.0379,-0.0367,-0.0365,-0.039,-0.0349,-0.0344,-0.0323,-0.0325,-0.0323,-0.0283,-0.0283,-0.037,-0.0434,0,0,0,-0.0373,-0.0374,-0.0381,-0.0379,-0.039,-0.0366,-0.0367,-0.0349,-0.0349,-0.0326,-0.0323,-0.0283,-0.0283,-0.0367,-0.0428,-0.0541,0,0,0,-0.0367,-0.0389,-0.0381,-0.0405,-0.039,-0.0402,-0.0368,-0.0366,-0.0351,-0.0325,-0.0283,-0.0283,-0.0367,-0.0425,-0.0536,-0.0513,0,0,0,-0.0392,-0.0392,-0.0406,-0.04,-0.0427,-0.0398,-0.0416,-0.0382,-0.0341,-0.029,-0.029,-0.0371,-0.0428,-0.054,-0.0526,0,0,0,0,-0.0412,-0.0428,-0.0433,-0.0449,-0.0445,-0.0455,-0.0417,-0.0402,-0.0379,-0.0336,-0.0351,-0.0384,-0.0453,-0.0423,-0.0285,-0.0285,-0.0285,-0.0285,-0.0285,-0.0445,-0.0452,-0.0483,-0.0493,-0.0498,-0.0486,-0.0494,-0.0462,-0.0407,-0.0411,-0.0441,-0.0567,-0.0533,-0.0408,-0.0409,-0.0409,-0.0409,-0.041,-0.041,-0.0493,-0.0509,-0.0528,-0.0562,-0.0565,-0.0575,-0.0565,-0.0547,-0.0585,-0.0499,-0.0561,-0.0496,-0.0418,-0.0416,-0.0415,-0.0414,-0.0414,-0.0413,-0.0413,-0.0509,-0.0518,-0.0547,-0.0597,-0.0641,-0.0644,-0.0727,-0.0709,-0.0688,-0.0739,-0.0742,-0.0653,-0.0669,-0.0787,-0.0788,-0.0789,-0.0789,-0.079,-0.079,-0.0501,-0.0532,-0.0577,-0.0634,-0.0683,-0.0754,-0.0837,-0.0899,-0.0905,-0.0866,-0.0795,-0.0695,-0.0683,-0.069,-0.0802,-0.08,-0.0799,-0.0798,-0.0797,-0.0502,-0.0511,-0.0581,-0.0636,-0.0771,-0.0829,-0.093,-0.1047,-0.1137,-0.115,-0.0937,-0.0926,-0.0911,-0.0894,-0.0908,-0.109,-0.109,-0.109,0,-0.0483,-0.0499,-0.0583,-0.0686,-0.0809,-0.0878,-0.1018,-0.1106,-0.1107,-0.1052,-0.1111,-0.0862,-0.0855,-0.0826,-0.0812,-0.0823,0,0,0,-0.0473,-0.05,-0.0556,-0.067,-0.0819,-0.0954,-0.1051,-0.1079,-0.107,-0.1189,-0.1096,-0.1094,-0.0967,-0.0838,-0.0791,-0.0776,-0.0787,0,0]},{"header":{"parameterUnit":"m.s-1","parameterCategory":2,"la1":30.2992,"la2":30.254,"lo1":-89.0895,"lo2":-89.0443,"dy":0.0025,"dx":0.0025,"nx":19,"ny":19,"refTime":"2026-03-29T09:00:00:Z","depth":"4","parameterNumber":3,"parameterNumberName":"V-component_of_CURRENTS"},"data":[0,0,0,-0.0141,-0.0139,-0.0071,-0.0071,0.004,0.0041,0,0,0,0,0,0,0,0,0,0,0,-0.0164,-0.0164,-0.0141,-0.0139,-0.0071,-0.0071,0.004,0.0041,0,0,0,0,0,0,0,0,0,0,0,-0.0165,-0.0164,-0.0164,-0.0139,-0.0071,-0.0071,0.004,-0.0015,0,0,0,0,0,0,0,0,0,0,-0.0083,-0.0113,-0.0164,-0.0164,-0.0139,-0.0071,-0.007,-0.0018,-0.0012,0.0013,0,0.0017,0,0.0028,0.0048,0.0049,0,0,0,-0.0129,-0.0119,-0.0101,-0.0164,-0.0138,-0.0071,-0.0099,-0.0015,-0.0007,0.0021,0.0019,0.0023,0.003,0.0049,0.0049,0.0154,0.0155,0,0,-0.0133,-0.0148,-0.0106,-0.0097,-0.0128,-0.0101,-0.0097,-0.001,-0.0005,0.0019,0.0025,0.0032,0.005,0.005,0.0154,0.0155,0,0,0,-0.0151,-0.015,-0.0135,-0.0101,-0.0093,-0.01,-0.0095,-0.0009,-0.0004,0.0027,0.0033,0.005,0.0052,0.0154,0.0154,0.0133,0,0,0,-0.0152,-0.0161,-0.0137,-0.0144,-0.0095,-0.0053,-0.0095,-0.001,-0.0,0.0033,0.005,0.0053,0.0153,0.0154,0.0132,0.0109,0,0,0,-0.0166,-0.0162,-0.0157,-0.0145,-0.012,-0.0055,-0.0044,-0.0008,0.0004,0.0049,0.0053,0.0153,0.0154,0.0132,0.011,0.0106,0,0,0,-0.0179,-0.0175,-0.0158,-0.0141,-0.0121,-0.0065,-0.0045,0.0004,0.0042,0.0051,0.0153,0.0154,0.0132,0.011,0.0107,0.001,0,0,0,-0.0182,-0.0176,-0.0163,-0.0146,-0.0106,-0.0073,-0.002,0.0033,0.0064,0.0127,0.013,0.0132,0.011,0.0106,0.0063,0,0,0,0,-0.0168,-0.0165,-0.0146,-0.0119,-0.0073,-0.0034,0.0022,0.0052,0.0108,0.0088,0.0156,0.0143,0.0141,0.0087,0.0158,0.0158,0.0158,0.0158,0.0158,-0.0201,-0.0169,-0.0149,-0.0107,-0.0066,0.0002,0.0039,0.0091,0.0123,0.0146,0.0143,0.0149,0.0094,0.0172,0.0172,0.0172,0.0172,0.0172,0.0172,-0.0222,-0.0214,-0.0164,-0.014,-0.0082,-0.0035,0.0054,0.0082,0.0135,0.0155,0.0155,0.0091,0.017,0.0171,0.0171,0.0171,0.0171,0.0171,0.0171,-0.0257,-0.025,-0.0232,-0.0201,-0.0151,-0.0076,-0.0043,0.0035,0.0103,0.0113,0.0062,0.0136,0.0116,0.0115,0.0114,0.0114,0.0114,0.0114,0.0114,-0.031,-0.0288,-0.0308,-0.0265,-0.0252,-0.0207,-0.0103,-0.0063,0.0025,0.0023,0.0103,0.013,0.0132,0.0114,0.0113,0.0113,0.0113,0.0113,0.0113,-0.0358,-0.0365,-0.04,-0.0407,-0.0383,-0.0342,-0.0239,-0.0149,-0.0119,-0.0089,-0.0018,-0.0011,-0.0016,-0.001,-0.0033,-0.0078,-0.008,-0.0081,0,-0.0409,-0.0409,-0.0494,-0.0533,-0.053,-0.0431,-0.0396,-0.0312,-0.0196,-0.0214,-0.0124,-0.0049,-0.0043,-0.0051,-0.0048,-0.0078,0,0,0,-0.0455,-0.0478,-0.0564,-0.0604,-0.0603,-0.0487,-0.0386,-0.0366,-0.0214,-0.0186,-0.0113,-0.0105,0.0007,0.0108,0.0118,0.0121,0.0093,0,0]}]]